Regional Weather Roundup
Issued by NWS

Home | Current Version | Previous Version | Graphics & Text | Print | Product List | Glossary On
Versions: 1 2 3 4 5 6 7 8 9 10 11 12 13 14 15 16 17 18 19 20 21 22 23 24 25 26 27 28 29 30 31 32 33 34 35 36 37 38 39 40 41 42 43 44 45 46 47 48 49 50
000
ASUS43 KOAX 180702
RWRNE

WEATHER ROUNDUP FOR NEBRASKA
NATIONAL WEATHER SERVICE OMAHA NE
100 AM CST MON DEC 18 2017

NOTES: SATELLITE DATA IS BEING USED TO AUGMENT CLOUD COVER ABOVE
       12000 FEET.
       "FAIR" INDICATES FEW OR NO CLOUDS BELOW 12,000 FEET WITH NO
       SIGNIFICANT WEATHER AND/OR OBSTRUCTIONS TO VISIBILITY.


NEZ001>004-019>022-054>056-180800-
NEBRASKA PANHANDLE

CITY           SKY/WX    TMP DP  RH WIND       PRES   REMARKS
SCOTTSBLUFF    CLOUDY    21  12  68 S3        29.95S
ALLIANCE       CLOUDY    18  13  80 W9        29.92F WCI   7
CHADRON        CLOUDY    23  16  74 CALM      29.91F
GORDON         FAIR      30  19  61 W10       29.88S WCI  21
KIMBALL        CLOUDY    24  22  91 W10       29.95S WCI  13
SIDNEY         CLOUDY    21  18  88 NW9       29.97R WCI  11
$$

NEZ057>060-069>072-079>082-180800-
SOUTHWEST NEBRASKA

CITY           SKY/WX    TMP DP  RH WIND       PRES   REMARKS
NORTH PLATTE   CLEAR     25  22  88 NW8       29.96R WCI  16
IMPERIAL       CLOUDY    23  21  92 W10       29.97S WCI  12
LEXINGTON      CLOUDY    29  26  87 W6        29.96F WCI  23
MCCOOK         CLOUDY    24  22  91 W8        29.98S WCI  15
OGALLALA       CLOUDY    23  20  90 W6        29.97R WCI  16
$$

NEZ005>010-023>029-035>040-094-180800-
NORTH CENTRAL NEBRASKA

CITY           SKY/WX    TMP DP  RH WIND       PRES   REMARKS
VALENTINE      CLOUDY    30  24  78 W10       29.86S WCI  21
AINSWORTH      CLEAR     31  27  85 W12       29.85S WCI  21
BROKEN BOW     CLEAR     31  26  82 SW7       29.91F WCI  24
O`NEILL        CLEAR     31  31  97 S9        29.86F WCI  23
ORD            CLEAR     29  26  89 S7        29.90F WCI  22
THEDFORD       CLEAR     29  25  83 W10       29.90S WCI  20
$$

NEZ041-046>049-061>064-073>077-083>087-180800-
SOUTH CENTRAL NEBRASKA

CITY           SKY/WX    TMP DP  RH WIND       PRES   REMARKS
GRAND ISLAND   CLEAR     30  28  92 SW10      29.96F WCI  21
AURORA         CLEAR     23  22  94 SW8       29.97S WCI  14
HASTINGS       CLEAR     26  23  88 W6        29.98F WCI  19
HEBRON         CLOUDY    24  23  94 CALM      30.00S
HOLDREGE       CLOUDY    30  28  94 SW8       29.97F WCI  22
KEARNEY        CLEAR     28  26  92 SW9       29.97F WCI  19
YORK           CLEAR     23  23 100 W7        29.97F WCI  15
$$

NEZ011>018-030>034-042>045-180800-
NORTHEAST NEBRASKA

CITY           SKY/WX    TMP DP  RH WIND       PRES   REMARKS
NORFOLK        CLOUDY    22  20  92 S5        29.93F WCI  16
ALBION         CLEAR     28  25  87 S5        29.93F WCI  23
BLAIR          CLOUDY    28  27  94 S3        29.96S FOG
COLUMBUS       CLOUDY    20  17  88 CALM      29.97F
FREMONT        CLOUDY    21  19  92 CALM      29.97F FOG
TEKAMAH        CLOUDY    20  17  88 SE5       29.97F FOG     WCI  13
WAYNE          CLOUDY    17  17  97 CALM      29.93F
$$

NEZ050>053-065>068-078-088>093-180800-
SOUTHEAST NEBRASKA

CITY           SKY/WX    TMP DP  RH WIND       PRES   REMARKS
LINCOLN        CLOUDY    28  24  85 CALM      30.00S FOG
OMAHA EPPLEY   CLOUDY    25  20  81 SE5       29.98F WCI  19
BEATRICE       CLEAR     28  28  99 CALM      29.99F FOG
FALLS CITY     CLOUDY    37  36  96 S3        30.00F FOG
NEBRASKA CITY  CLEAR     28  28 100 SW8       29.99S FOG     WCI  20
PLATTSMOUTH    CLEAR     29  29 100 SW5       29.98S FOG     WCI  24
$$

NEZ044-045-051>053-067-180800-
OMAHA AREA

CITY           SKY/WX    TMP DP  RH WIND       PRES   REMARKS
OMAHA EPPLEY   CLOUDY    25  20  81 SE5       29.98F WCI  19
BLAIR          CLOUDY    28  27  94 S3        29.96S FOG
FREMONT        CLOUDY    21  19  92 CALM      29.97F FOG
MILLARD        CLEAR     27  26  94 CALM      29.98F FOG
OFFUTT AFB     CLEAR     23  21  93 CALM      29.97F FOG
PLATTSMOUTH    CLEAR     29  29 100 SW5       29.98S FOG     WCI  24
WAHOO          FAIR      26  23  91 SW3       29.97S
$$




USA.gov is the U.S. government's official web portal to all federal, state and local government web resources and services.